Time,TemperatureF,DewpointF,PressureIn,WindDirection,WindDirectionDegrees,WindSpeedMPH,WindSpeedGustMPH,Humidity,HourlyPrecipIn,Conditions,Clouds,dailyrainin,SolarRadiationWatts/m^2,SoftwareType,DateUTC
2013-11-30 00:02:00,24.0,20.0,-100.00,East,90,0.0,0.0,86,0.00,,,0.01,0.000000,,2013-11-30 05:02:00,
2013-11-30 00:12:00,24.0,20.0,-100.00,East,90,0.0,0.0,86,0.00,,,0.01,0.000000,,2013-11-30 05:12:00,
2013-11-30 00:22:00,24.0,20.0,-100.00,East,90,0.0,0.0,86,0.00,,,0.01,0.000000,,2013-11-30 05:22:00,
2013-11-30 00:53:00,23.0,20.0,-100.00,East,90,0.0,0.0,88,0.00,,,0.01,0.000000,,2013-11-30 05:53:00,
2013-11-30 01:02:00,23.0,20.0,-100.00,East,90,0.0,0.0,88,0.00,,,0.01,0.000000,,2013-11-30 06:02:00,
2013-11-30 01:12:00,23.0,20.0,-100.00,East,90,0.0,0.0,88,0.00,,,0.01,0.000000,,2013-11-30 06:12:00,
2013-11-30 01:22:00,23.0,20.0,-100.00,East,90,0.0,0.0,88,0.00,,,0.01,0.000000,,2013-11-30 06:22:00,
2013-11-30 01:52:00,22.0,19.0,-100.00,East,97,1.0,2.0,89,0.00,,,0.01,0.000000,,2013-11-30 06:52:00,
2013-11-30 02:02:00,22.0,19.0,-100.00,East,97,1.0,2.0,89,0.00,,,0.01,0.000000,,2013-11-30 07:02:00,
2013-11-30 02:12:00,22.0,19.0,-100.00,East,97,1.0,2.0,89,0.00,,,0.01,0.000000,,2013-11-30 07:12:00,
2013-11-30 02:21:00,22.0,19.0,-100.00,East,97,1.0,2.0,89,0.00,,,0.01,0.000000,,2013-11-30 07:21:00,
2013-11-30 02:52:00,21.0,19.0,-100.00,East,91,0.0,2.0,92,0.00,,,0.01,0.000000,,2013-11-30 07:52:00,
2013-11-30 03:02:00,21.0,19.0,-100.00,East,91,0.0,2.0,92,0.00,,,0.01,0.000000,,2013-11-30 08:02:00,
2013-11-30 03:11:00,21.0,19.0,-100.00,East,91,0.0,2.0,92,0.00,,,0.01,0.000000,,2013-11-30 08:11:00,
2013-11-30 03:22:00,21.0,19.0,-100.00,East,91,0.0,2.0,92,0.00,,,0.01,0.000000,,2013-11-30 08:22:00,
2013-11-30 03:52:00,21.0,19.0,-100.00,East,92,0.0,0.0,92,0.00,,,0.01,0.000000,,2013-11-30 08:52:00,
2013-11-30 04:02:00,21.0,19.0,-100.00,East,92,0.0,0.0,92,0.00,,,0.01,0.000000,,2013-11-30 09:02:00,
2013-11-30 04:11:00,21.0,19.0,-100.00,East,92,0.0,0.0,92,0.00,,,0.01,0.000000,,2013-11-30 09:11:00,
2013-11-30 04:22:00,21.0,19.0,-100.00,East,92,0.0,0.0,92,0.00,,,0.01,0.000000,,2013-11-30 09:22:00,
2013-11-30 04:23:00,21.0,20.0,-100.00,East,96,0.0,0.0,94,0.00,,,0.01,0.000000,,2013-11-30 09:23:00,
2013-11-30 04:54:00,21.0,20.0,-100.00,East,96,0.0,0.0,94,0.00,,,0.01,0.000000,,2013-11-30 09:54:00,
2013-11-30 05:03:00,21.0,20.0,-100.00,East,96,0.0,0.0,94,0.00,,,0.01,0.000000,,2013-11-30 10:03:00,
2013-11-30 05:13:00,21.0,20.0,-100.00,East,96,0.0,0.0,94,0.00,,,0.01,0.000000,,2013-11-30 10:13:00,
2013-11-30 05:53:00,22.0,21.0,-100.00,ESE,117,0.0,0.0,94,0.00,,,0.01,0.000000,,2013-11-30 10:53:00,
2013-11-30 06:02:00,22.0,21.0,-100.00,ESE,117,0.0,0.0,94,0.00,,,0.01,0.000000,,2013-11-30 11:02:00,
2013-11-30 06:12:00,22.0,21.0,-100.00,ESE,117,0.0,0.0,94,0.00,,,0.01,0.000000,,2013-11-30 11:12:00,
2013-11-30 06:22:00,22.0,21.0,-100.00,ESE,117,0.0,0.0,94,0.00,,,0.01,0.000000,,2013-11-30 11:22:00,
2013-11-30 06:53:00,21.0,19.0,-100.00,ESE,116,0.0,0.0,93,0.00,,,0.01,0.000000,,2013-11-30 11:53:00,
2013-11-30 07:02:00,21.0,19.0,-100.00,ESE,116,0.0,0.0,93,0.00,,,0.01,0.000000,,2013-11-30 12:02:00,
2013-11-30 07:11:00,21.0,19.0,-100.00,ESE,116,0.0,0.0,93,0.00,,,0.01,0.000000,,2013-11-30 12:11:00,
2013-11-30 07:22:00,21.0,19.0,-100.00,ESE,116,0.0,0.0,93,0.00,,,0.01,0.000000,,2013-11-30 12:22:00,
2013-11-30 07:52:00,22.0,20.0,-100.00,ESE,104,0.0,0.0,93,0.00,,,0.01,0.000000,,2013-11-30 12:52:00,
2013-11-30 08:02:00,22.0,20.0,-100.00,ESE,104,0.0,0.0,93,0.00,,,0.01,0.000000,,2013-11-30 13:02:00,
2013-11-30 08:11:00,22.0,20.0,-100.00,ESE,104,0.0,0.0,93,0.00,,,0.01,0.000000,,2013-11-30 13:11:00,
2013-11-30 08:21:00,22.0,20.0,-100.00,ESE,104,0.0,0.0,93,0.00,,,0.01,0.000000,,2013-11-30 13:21:00,
2013-11-30 08:52:00,23.0,21.0,-100.00,East,97,0.0,0.0,93,0.00,,,0.01,5.000000,,2013-11-30 13:52:00,
2013-11-30 09:02:00,23.0,21.0,-100.00,East,97,0.0,0.0,93,0.00,,,0.01,5.000000,,2013-11-30 14:02:00,
2013-11-30 09:12:00,23.0,21.0,-100.00,East,97,0.0,0.0,93,0.00,,,0.01,5.000000,,2013-11-30 14:12:00,
2013-11-30 09:22:00,23.0,21.0,-100.00,East,97,0.0,0.0,93,0.00,,,0.01,5.000000,,2013-11-30 14:22:00,
2013-11-30 09:53:00,28.0,25.0,-100.00,WNW,286,0.0,0.0,90,0.00,,,0.01,23.000000,,2013-11-30 14:53:00,
2013-11-30 10:02:00,28.0,25.0,-100.00,WNW,286,0.0,0.0,90,0.00,,,0.01,23.000000,,2013-11-30 15:02:00,
2013-11-30 10:11:00,28.0,25.0,-100.00,WNW,286,0.0,0.0,90,0.00,,,0.01,23.000000,,2013-11-30 15:11:00,
2013-11-30 10:21:00,28.0,25.0,-100.00,WNW,286,0.0,0.0,90,0.00,,,0.01,23.000000,,2013-11-30 15:21:00,
2013-11-30 10:23:00,32.0,26.0,-100.00,NE,50,1.0,4.0,77,0.00,,,0.01,36.000000,,2013-11-30 15:23:00,
2013-11-30 10:54:00,32.0,26.0,-100.00,NE,50,1.0,4.0,77,0.00,,,0.01,36.000000,,2013-11-30 15:54:00,
2013-11-30 11:03:00,32.0,26.0,-100.00,NE,50,1.0,4.0,77,0.00,,,0.01,36.000000,,2013-11-30 16:03:00,
2013-11-30 11:13:00,32.0,26.0,-100.00,NE,50,1.0,4.0,77,0.00,,,0.01,36.000000,,2013-11-30 16:13:00,
2013-11-30 11:53:00,35.0,26.0,-100.00,ENE,71,1.0,4.0,68,0.00,,,0.01,77.000000,,2013-11-30 16:53:00,
2013-11-30 12:02:00,35.0,26.0,-100.00,ENE,71,1.0,4.0,68,0.00,,,0.01,77.000000,,2013-11-30 17:02:00,
2013-11-30 12:11:00,35.0,26.0,-100.00,ENE,71,1.0,4.0,68,0.00,,,0.01,77.000000,,2013-11-30 17:11:00,
2013-11-30 12:22:00,35.0,26.0,-100.00,ENE,71,1.0,4.0,68,0.00,,,0.01,77.000000,,2013-11-30 17:22:00,
2013-11-30 12:53:00,39.0,27.0,-100.00,ENE,77,2.0,5.0,61,0.03,,,0.04,221.000000,,2013-11-30 17:53:00,
2013-11-30 13:02:00,39.0,27.0,-100.00,ENE,77,2.0,5.0,61,0.03,,,0.04,221.000000,,2013-11-30 18:02:00,
2013-11-30 13:12:00,39.0,27.0,-100.00,ENE,77,2.0,5.0,61,0.03,,,0.04,221.000000,,2013-11-30 18:12:00,
2013-11-30 13:22:00,39.0,27.0,-100.00,ENE,77,2.0,5.0,61,0.03,,,0.04,221.000000,,2013-11-30 18:22:00,
2013-11-30 13:52:00,40.0,27.0,-100.00,East,100,2.0,4.0,60,0.01,,,0.05,134.000000,,2013-11-30 18:52:00,
2013-11-30 14:02:00,40.0,27.0,-100.00,East,100,2.0,4.0,60,0.01,,,0.05,134.000000,,2013-11-30 19:02:00,
2013-11-30 14:11:00,40.0,27.0,-100.00,East,100,2.0,4.0,60,0.01,,,0.05,134.000000,,2013-11-30 19:11:00,
2013-11-30 14:21:00,40.0,27.0,-100.00,East,100,2.0,4.0,60,0.01,,,0.05,134.000000,,2013-11-30 19:21:00,
2013-11-30 14:52:00,41.0,27.0,-100.00,ESE,116,2.0,7.0,57,0.01,,,0.05,76.000000,,2013-11-30 19:52:00,
2013-11-30 15:02:00,41.0,27.0,-100.00,ESE,116,2.0,7.0,57,0.01,,,0.05,76.000000,,2013-11-30 20:02:00,
2013-11-30 15:11:00,41.0,27.0,-100.00,ESE,116,2.0,7.0,57,0.01,,,0.05,76.000000,,2013-11-30 20:11:00,
2013-11-30 15:22:00,41.0,27.0,-100.00,ESE,116,2.0,7.0,57,0.01,,,0.05,76.000000,,2013-11-30 20:22:00,
2013-11-30 15:52:00,42.0,27.0,-100.00,East,96,2.0,4.0,56,0.02,,,0.07,37.000000,,2013-11-30 20:52:00,
2013-11-30 16:02:00,42.0,27.0,-100.00,East,96,2.0,4.0,56,0.02,,,0.07,37.000000,,2013-11-30 21:02:00,
2013-11-30 16:11:00,42.0,27.0,-100.00,East,96,2.0,4.0,56,0.02,,,0.07,37.000000,,2013-11-30 21:11:00,
2013-11-30 16:22:00,42.0,27.0,-100.00,East,96,2.0,4.0,56,0.02,,,0.07,37.000000,,2013-11-30 21:22:00,
2013-11-30 16:23:00,42.0,27.0,-100.00,ESE,113,2.0,3.0,56,0.01,,,0.08,24.000000,,2013-11-30 21:23:00,
2013-11-30 16:53:00,42.0,27.0,-100.00,ESE,113,2.0,3.0,56,0.01,,,0.08,24.000000,,2013-11-30 21:53:00,
2013-11-30 17:04:00,42.0,27.0,-100.00,ESE,113,2.0,3.0,56,0.01,,,0.08,24.000000,,2013-11-30 22:04:00,
2013-11-30 17:12:00,42.0,27.0,-100.00,ESE,113,2.0,3.0,56,0.01,,,0.08,24.000000,,2013-11-30 22:12:00,
2013-11-30 17:52:00,38.0,25.0,-100.00,ESE,110,2.0,3.0,60,0.01,,,0.09,8.000000,,2013-11-30 22:52:00,
2013-11-30 18:02:00,38.0,25.0,-100.00,ESE,110,2.0,3.0,60,0.01,,,0.09,8.000000,,2013-11-30 23:02:00,
2013-11-30 18:12:00,38.0,25.0,-100.00,ESE,110,2.0,3.0,60,0.01,,,0.09,8.000000,,2013-11-30 23:12:00,
2013-11-30 18:22:00,38.0,25.0,-100.00,ESE,110,2.0,3.0,60,0.01,,,0.09,8.000000,,2013-11-30 23:22:00,
2013-11-30 18:53:00,35.0,26.0,-100.00,ESE,111,1.0,3.0,68,0.00,,,0.09,0.000000,,2013-11-30 23:53:00,
2013-11-30 19:02:00,35.0,26.0,-100.00,ESE,111,1.0,3.0,68,0.00,,,0.09,0.000000,,2013-12-01 00:02:00,
2013-11-30 19:11:00,35.0,26.0,-100.00,ESE,111,1.0,3.0,68,0.00,,,0.09,0.000000,,2013-12-01 00:11:00,
2013-11-30 19:22:00,35.0,26.0,-100.00,ESE,111,1.0,3.0,68,0.00,,,0.09,0.000000,,2013-12-01 00:22:00,
2013-11-30 19:52:00,32.0,26.0,-100.00,East,89,0.0,3.0,78,0.00,,,0.09,0.000000,,2013-12-01 00:52:00,
2013-11-30 20:02:00,32.0,26.0,-100.00,East,89,0.0,3.0,78,0.00,,,0.09,0.000000,,2013-12-01 01:02:00,
2013-11-30 20:12:00,32.0,26.0,-100.00,East,89,0.0,3.0,78,0.00,,,0.09,0.000000,,2013-12-01 01:12:00,
2013-11-30 20:21:00,32.0,26.0,-100.00,East,89,0.0,3.0,78,0.00,,,0.09,0.000000,,2013-12-01 01:21:00,
2013-11-30 20:52:00,29.0,26.0,-100.00,SSE,168,0.0,0.0,87,0.00,,,0.09,0.000000,,2013-12-01 01:52:00,
2013-11-30 21:01:00,29.0,26.0,-100.00,SSE,168,0.0,0.0,87,0.00,,,0.09,0.000000,,2013-12-01 02:01:00,
2013-11-30 21:11:00,29.0,26.0,-100.00,SSE,168,0.0,0.0,87,0.00,,,0.09,0.000000,,2013-12-01 02:11:00,
2013-11-30 21:21:00,29.0,26.0,-100.00,SSE,168,0.0,0.0,87,0.00,,,0.09,0.000000,,2013-12-01 02:21:00,
2013-11-30 21:52:00,28.0,26.0,-100.00,West,263,0.0,0.0,91,0.00,,,0.09,0.000000,,2013-12-01 02:52:00,
2013-11-30 22:02:00,28.0,26.0,-100.00,West,263,0.0,0.0,91,0.00,,,0.09,0.000000,,2013-12-01 03:02:00,
2013-11-30 22:11:00,28.0,26.0,-100.00,West,263,0.0,0.0,91,0.00,,,0.09,0.000000,,2013-12-01 03:11:00,
2013-11-30 22:22:00,28.0,26.0,-100.00,West,263,0.0,0.0,91,0.00,,,0.09,0.000000,,2013-12-01 03:22:00,
2013-11-30 22:54:00,27.0,26.0,-100.00,West,275,0.0,0.0,94,0.00,,,0.09,0.000000,,2013-12-01 03:54:00,
2013-11-30 23:03:00,-999.0,-99.9,-100.00,West,275,0.0,0.0,-999,0.00,,,0.09,0.000000,,2013-12-01 04:03:00,
2013-11-30 23:13:00,27.0,26.0,-100.00,West,275,0.0,0.0,94,0.00,,,0.09,0.000000,,2013-12-01 04:13:00,
2013-11-30 23:22:00,27.0,26.0,-100.00,West,275,0.0,0.0,94,0.00,,,0.09,0.000000,,2013-12-01 04:22:00,
2013-11-30 23:53:00,26.0,25.0,-100.00,NW,313,0.0,0.0,95,0.00,,,0.09,0.000000,,2013-12-01 04:53:00,